Regional Weather Roundup
Issued by NWS

Home | Current Version | Previous Version | Graphics & Text | Print | Product List | Glossary On
Versions: 1 2 3 4 5 6 7 8 9 10 11 12 13 14 15 16 17 18 19 20 21 22 23 24 25 26 27
000
ASUS43 KDMX 192107
RWRIA

WEATHER ROUNDUP FOR IOWA
NATIONAL WEATHER SERVICE DES MOINES IA
400 PM CDT SAT APR 19 2014

NOTE: "FAIR" INDICATES FEW OR NO CLOUDS BELOW 12,000 FEET WITH NO
SIGNIFICANT WEATHER AND/OR OBSTRUCTIONS TO VISIBILITY.

* - THESE STATIONS ARE NOT NWS STATIONS...THUS NOT UNDER NWS
QUALITY CONTROL.  THEY ALSO DO NOT REPORT WEATHER SUCH
AS PRECIPITATION OR FOG.

IAZ001>003-012>014-020>022-031>034-043>046-192200-
   NORTHWEST IOWA

CITY           SKY/WX    TMP DP  RH WIND       PRES   REMARKS
CARROLL *      MOSUNNY   79  41  25 S23G31    30.00R
CHEROKEE *     CLOUDY    75  46  35 SW17      29.97S
DENISON *      CLOUDY    75  41  29 S18G28    29.98S
LE MARS *      PTSUNNY   75  48  38 SW14G21   29.96F
ORANGE CITY *  PTSUNNY   73  45  35 SW13G21   29.98S
SHELDON *      PTSUNNY   73  48  40 SW14G22   29.97S
SIOUX CITY     CLOUDY    78  48  34 SW17G28   29.96F
SPENCER        CLOUDY    75  47  36 SW22      29.98F
STORM LAKE *   SUNNY     77  45  31 S23G31    29.99F
$$

IAZ055>058-069>071-079>083-090>094-192200-
   SOUTHWEST IOWA

CITY           SKY/WX    TMP DP  RH WIND       PRES   REMARKS
ATLANTIC *     MOSUNNY   77  43  29 S21G31    30.00S
AUDUBON *      MOSUNNY   77  30  18 S16G23    30.02S
CLARINDA *     SUNNY     79  45  29 S20G26    30.03F
COUNCIL BLFS * PTSUNNY   77  46  33 S16G23    29.98F
CRESTON *      SUNNY     75  43  31 S23       30.04F
HARLAN  *      PTSUNNY   77  43  29 S24G31    30.02F
LAMONI         PTSUNNY   76  43  30 S18G31    30.06F
RED OAK *      MOSUNNY   79  45  29 S21G31    30.00F
SHENANDOAH *   SUNNY     81  43  26 S22G32    30.01S
$$

IAZ047>049-059>061-072>074-084-192200-
   CENTRAL IOWA

CITY           SKY/WX    TMP DP  RH WIND       PRES   REMARKS
AMES           PTSUNNY   74  43  32 S18G28    30.04F
ANKENY *       SUNNY     77  43  29 S22G31    30.04F
CHARITON *     SUNNY     75  45  33 S26G35    30.07F
DES MOINES     CLOUDY    77  43  29 S16G31    30.05F
GRINNELL*      PTSUNNY   75  41  29 S23G29    30.08F
KNOXVILLE *    SUNNY     75  43  31 S21       30.07F
MARSHALLTOWN   PTSUNNY   74  44  34 S23G30    30.06F
NEWTON *       SUNNY     77  41  27 S23G36    30.07F
PELLA *        PTSUNNY   75  45  33 S16G30    30.09F
PERRY *          N/A     77  34  20 S22       30.02S
$$

IAZ004>006-015-016-023>025-035-036-192200-
   NORTH CENTRAL IOWA

CITY           SKY/WX    TMP DP  RH WIND       PRES   REMARKS
ALGONA *       MOSUNNY   77  43  29 S29G36    29.98F
CLARION *      PTSUNNY   75  43  31 S25G35    30.01F
ESTHERVILLE    PTSUNNY   75  48  38 SW18G24   29.97F
FORT DODGE *   PTSUNNY   75  45  33 SW17G28   30.02S
MASON CITY     PTSUNNY   74  44  34 S21G28    30.04
FOREST CITY *  CLOUDY    73  43  33 S18G24    30.01F
IOWA FALLS *     N/A     75  41  29 S22G35    30.05S
$$

IAZ007>011-017>019-026>030-037>042-050>054-066-192200-
   NORTHEAST IOWA

CITY           SKY/WX    TMP DP  RH WIND       PRES   REMARKS
CEDAR RAPIDS   PTSUNNY   74  40  29 S22G32    30.11F
CHARLES CITY * MOSUNNY   72  43  35 S23G32    30.07R
CLINTON *      PTSUNNY   70  34  26 SE13      30.21F
DECORAH *      SUNNY     70  39  32 S15G28    30.09F
DUBUQUE        PTSUNNY   68  35  29 S21       30.16F
MONTICELLO *   SUNNY     72  39  30 S18G25    30.14S
OELWEIN *      SUNNY    N/A N/A N/A S20G35    30.11S
WATERLOO       MOSUNNY   73  41  31 S28G36    30.07F
$$

IAZ064-065-067-068-078-192200-
   EAST CENTRAL IOWA

CITY           SKY/WX    TMP DP  RH WIND       PRES   REMARKS
DAVENPORT      PTSUNNY   73  35  25 SE15G25   30.18F
IOWA CITY      PTSUNNY   74  43  32 S18G24    30.14F
MT. PLEASANT * MOSUNNY   75  36  23 SE18      30.15F
MUSCATINE *    SUNNY     75  41  29 SE16G28   30.15F
QUAD CITIES    MOSUNNY   74  36  25 S14G23    30.17F
$$

IAZ062-063-075>077-085>089-095>099-192200-
   SOUTHEAST IOWA

CITY           SKY/WX    TMP DP  RH WIND       PRES   REMARKS
BURLINGTON     PTSUNNY   74  42  31 S13       30.16
FAIRFIELD *    SUNNY     75  41  29 S16G24    30.13F
FORT MADISON * SUNNY     73  43  33 S10       30.16F
KEOKUK *       SUNNY     73  43  33 SE13      30.15F
OSKALOOSA *      N/A     77  45  31 S22       30.10F
CENTERVILLE *  SUNNY     75  46  35 S17G23    30.12F
OTTUMWA        PTSUNNY   74  43  32 S17       30.11F
WASHINGTON *   SUNNY     75  41  29 S16G25    30.13F
$$

ABBREVIATIONS USED IN REMARKS
   TC - TEMPERATURES IN CELSIUS
  WCI - WIND CHILL INDEX
   HX - HEAT INDEX
  VSB - VISIBILITY
$$




USA.gov is the U.S. government's official web portal to all federal, state and local government web resources and services.